Weather History for KERI - February, 2014

Change the Weather History Date:

Monday, February 17, 2014

  Actual Average Record
Temperature  
Mean Temperature 13 °F 28 °F  
Max Temperature 32 °F 36 °F 62 °F (2006)
Min Temperature -7 °F 21 °F -12 °F (1973)
Degree Days  
Heating Degree Days 52 37  
Month to date heating degree days 828 638  
Since 1 July heating degree days 4409 3976  
Cooling Degree Days 0 0  
Month to date cooling degree days 0 0  
Year to date cooling degree days 0 0  
Moisture  
Dew Point 6 °F    
Average Humidity 62    
Maximum Humidity 95    
Minimum Humidity 29    
Precipitation  
Precipitation 0.12 in 0.08 in 0.97 in (1961)
Month to date precipitation 2.11 1.41  
Year to date precipitation 4.67 4.36  
Snow  
Snow 1.80 in 0.60 in - ()
Month to date snowfall 20.9 11.5  
Since 1 July snowfall 112.6 77.3  
Snow Depth 8.00 in    
Sea Level Pressure  
Sea Level Pressure 30.10 in    
Wind  
Wind Speed 9 mph (SE)    
Max Wind Speed 36 mph    
Max Gust Speed 52 mph    
Visibility 7 miles    
Events Fog , Snow    
T = Trace of Precipitation, MM = Missing Value Source: NWS Daily Summary

Daily Weather History Graph

Daily Weather History Graph

Search for Another Location

Airport or City:

Trip Planner

Search our weather history database for the weather conditions in past years. The results will help you decide how hot, cold, wet, or windy it might be!

Date:

Astronomy

Feb. 17, 2014 Rise Set
Actual Time 7:13 AM EST 5:56 PM EST
Civil Twilight 6:45 AM EST 6:24 PM EST
Nautical Twilight 6:12 AM EST 6:57 PM EST
Astronomical Twilight 5:40 AM EST 7:29 PM EST
Moon 8:53 PM EST (2/17) 8:10 AM EST (2/17)
Length of Visible Light 11h 39m
Length of Day
10h 42m
Waning Gibbous, 93% of the Moon is Illuminated
Feb 17
Waning Gibbous
Feb 22
Last Quarter
Mar 1
New
Mar 8
First Quarter
Mar 16
Full

Hourly Weather History & Observations

Time (EST) Temp. Windchill Dew Point Humidity Pressure Visibility Wind Dir Wind Speed Gust Speed Precip Events Conditions
12:51 AM 5.0 °F - -0.9 °F 76% 30.40 in 10.0 mi Calm Calm - N/A   Clear
1:51 AM 1.0 °F - -2.9 °F 83% 30.40 in 10.0 mi Calm Calm - N/A   Clear
2:51 AM -0.9 °F - -5.1 °F 83% 30.41 in 9.0 mi Calm Calm - N/A   Clear
3:51 AM -5.1 °F -15.8 °F -9.0 °F 83% 30.42 in 10.0 mi SSW 4.6 mph - N/A   Clear
4:51 AM -4.0 °F - -9.9 °F 76% 30.43 in 9.0 mi Calm Calm - N/A   Clear
5:51 AM -6.0 °F -14.7 °F -11.0 °F 79% 30.43 in 9.0 mi SSW 3.5 mph - N/A   Clear
6:51 AM -7.1 °F -18.1 °F -11.9 °F 79% 30.45 in 10.0 mi South 4.6 mph - N/A   Clear
7:51 AM -2.9 °F -11.2 °F -8.0 °F 79% 30.49 in 8.0 mi South 3.5 mph - N/A   Clear
8:51 AM 1.9 °F - -0.9 °F 88% 30.48 in 10.0 mi Calm Calm - N/A   Clear
9:51 AM 10.9 °F - 3.9 °F 73% 30.45 in 10.0 mi Calm Calm - N/A   Clear
10:51 AM 16.0 °F 4.4 °F -2.0 °F 45% 30.42 in 10.0 mi SSE 9.2 mph - N/A   Clear
11:51 AM 21.0 °F 12.4 °F -2.9 °F 35% 30.38 in 10.0 mi East 6.9 mph - 0.00 in   Clear
12:51 PM 21.9 °F 13.4 °F 1.9 °F 42% 30.34 in 10.0 mi NNE 6.9 mph - 0.00 in   Clear
1:51 PM 19.0 °F 7.5 °F 6.1 °F 57% 30.29 in 10.0 mi ENE 10.4 mph - 0.00 in   Clear
2:51 PM 18.0 °F 6.9 °F 7.0 °F 62% 30.23 in 10.0 mi ENE 9.2 mph - N/A   Clear
3:51 PM 19.0 °F 11.1 °F 7.0 °F 59% 30.21 in 10.0 mi NNE 5.8 mph - N/A   Clear
4:51 PM 17.1 °F 4.3 °F 8.1 °F 68% 30.14 in 10.0 mi ENE 11.5 mph - N/A   Clear
5:51 PM 19.9 °F 13.4 °F 10.0 °F 65% 30.06 in 10.0 mi NE 4.6 mph - N/A   Overcast
6:51 PM 30.0 °F 22.4 °F 5.0 °F 35% 30.01 in 10.0 mi SE 8.1 mph - N/A   Overcast
7:51 PM 32.0 °F 22.5 °F 3.0 °F 29% 29.96 in 10.0 mi SSE 12.7 mph 21.9 mph N/A   Overcast
8:51 PM 30.9 °F 17.5 °F 5.0 °F 33% 29.86 in 10.0 mi SE 24.2 mph 33.4 mph N/A   Overcast
9:51 PM 30.9 °F 16.7 °F 5.0 °F 33% 29.82 in 10.0 mi SSE 27.6 mph 35.7 mph N/A   Overcast
10:18 PM 26.6 °F 12.4 °F 15.8 °F 64% 29.73 in 2.0 mi SSE 21.9 mph 36.8 mph 0.00 in Snow Light Snow
10:25 PM 26.6 °F 11.7 °F 17.6 °F 69% 29.73 in 1.2 mi SSE 24.2 mph 38.0 mph 0.00 in Snow Light Snow
10:37 PM 26.6 °F 12.0 °F 21.2 °F 80% 29.71 in 0.8 mi SSE 23.0 mph 34.5 mph 0.00 in Snow Light Snow
10:44 PM 26.6 °F 12.0 °F 21.2 °F 80% 29.71 in 1.5 mi SSE 23.0 mph 34.5 mph 0.00 in Snow Light Snow
10:51 PM 26.1 °F 10.7 °F 19.9 °F 78% 29.73 in 1.2 mi SSE 25.3 mph 34.5 mph 0.00 in Snow Light Snow
11:01 PM 26.6 °F 10.8 °F 19.4 °F 74% 29.68 in 0.5 mi SSE 27.6 mph 46.0 mph 0.00 in Snow Snow
11:14 PM 24.8 °F 8.1 °F 21.2 °F 86% 29.66 in 0.5 mi SE 28.8 mph 46.0 mph 0.00 in Fog , Snow Snow
11:24 PM 24.8 °F 8.4 °F 21.2 °F 86% 29.64 in 0.8 mi SE 27.6 mph 44.9 mph 0.00 in Snow Light Snow
11:30 PM 24.8 °F 7.3 °F 21.2 °F 86% 29.64 in 1.0 mi SE 32.2 mph 44.9 mph 0.00 in Snow Light Snow
11:43 PM 26.6 °F 10.3 °F 21.2 °F 80% 29.64 in 1.2 mi SSE 29.9 mph 43.7 mph 0.00 in Snow Light Snow
11:51 PM 26.1 °F 10.7 °F 21.0 °F 81% 29.68 in 1.2 mi SSE 25.3 mph 51.8 mph 0.00 in Snow Light Snow